Weather observations for the past three days for
Atkinson Municipal Airport
Imperial (Metric)
Date Time (cdt) Wind (mph) Vis. (mi.) Weather Sky Cond. Temperature (ºF) Relative Humidity Wind Chill (°F) Heat Index (°F) Pressure Precipitation (in)
Air Dwpt 6 hour altimeter (in) sea level (mb) 1 hr 3 hr 6 hr
Max. Min.
25 03:35 S 6 10.00 Fair CLR 77.9 70.7 79% 80 29.88 0.0
25 03:15 S 5 10.00 Fair CLR 77.9 70.9 79% 80 29.88 0.0
25 02:55 S 6 10.00 Fair CLR 77.9 70.9 79% 80 29.88 0.0
25 02:35 S 5 10.00 Fair CLR 78.3 70.7 78% 81 29.89 0.0
25 02:15 S 3 10.00 Fair CLR 78.8 70.7 76% 82 29.89 0.0
25 01:55 S 5 10.00 Fair CLR 79.3 70.7 75% 82 29.9 0.0
25 01:35 S 5 10.00 Fair CLR 79.7 70.5 74% 83 29.9 0.0
25 01:15 S 3 10.00 Fair CLR 79.7 70.2 73% 83 29.9 0.0
25 00:55 S 5 10.00 Fair CLR 80.2 70 95.2 80.1 71% 83 29.9 0.0
25 00:35 S 5 10.00 Fair CLR 80.2 69.8 71% 83 29.9 0.0
25 00:15 S 5 10.00 Fair CLR 81.1 69.8 69% 85 29.9 0.0
24 23:55 S 5 10.00 Fair CLR 81.9 69.6 67% 85 29.9 0.0
24 23:35 S 5 10.00 Fair CLR 82.8 69.3 64% 86 29.9 0.0
24 23:15 S 6 10.00 Fair CLR 83.5 69.1 62% 87 29.89 0.0
24 22:55 S 6 10.00 Fair CLR 84.2 68.9 60% 88 29.88 0.0
24 22:35 S 7 10.00 Fair CLR 84.2 68.9 60% 88 29.88 0.0
24 22:15 S 7 10.00 Fair CLR 85.1 68.5 58% 89 29.87 0.0
24 21:55 S 7 10.00 Fair CLR 85.3 68.7 58% 89 29.87 0.0
24 21:35 S 6 10.00 Fair CLR 85.8 68.9 57% 90 29.86 0.0
24 21:15 S 7 10.00 Fair CLR 86.7 68.9 55% 91 29.86 0.0
24 20:55 S 6 10.00 Fair CLR 86.9 68.9 55% 91 29.86 0.0
24 20:35 S 6 10.00 Fair CLR 88.5 68.9 52% 93 29.85 0.0
24 20:15 S 7 10.00 Fair CLR 90.3 68.5 49% 95 29.85 0.0
24 19:55 S 9 10.00 Fair CLR 91.8 68.7 47% 96 29.85 0.0
24 19:35 SW 10 10.00 Fair CLR 93.4 68 44% 98 29.85 0.0
24 19:15 SW 12 10.00 Fair CLR 94.5 66.9 41% 98 29.85 0.0
24 18:55 SW 10 10.00 Fair CLR 95.2 67.6 99.1 95.2 41% 100 29.84 0.0
24 18:35 S 15 G 21 10.00 Fair CLR 95.9 66.9 39% 100 29.84 0.0
24 18:15 SW 15 G 21 10.00 Partly Cloudy SCT065 96.3 67.5 39% 101 29.85 0.0
24 17:55 S 16 G 21 10.00 Partly Cloudy SCT065 96.6 68.2 40% 102 29.85 0.0
24 17:35 SW 15 G 18 10.00 Partly Cloudy SCT065 98.2 66.2 35% 102 29.86 0.0
24 17:15 SW 15 G 20 10.00 Fair CLR 98.8 65.7 34% 102 29.86 0.0
24 16:55 SW 14 10.00 Fair CLR 97.9 67.3 37% 103 29.87 0.0
24 16:35 S 16 G 21 10.00 Partly Cloudy SCT065 98.6 67.1 36% 103 29.87 0.0
24 16:15 S 12 G 16 10.00 Fair CLR 97.3 69.1 40% 103 29.87 0.0
24 15:55 SW 12 10.00 Fair CLR 98.2 67.8 37% 103 29.88 0.0
24 15:35 SW 12 10.00 Fair CLR 99 68.7 37% 105 29.88 0.0
24 15:15 S 13 G 20 10.00 Fair CLR 98.2 69.6 40% 105 29.89 0.0
24 14:55 S 13 10.00 Fair CLR 97.3 69.8 41% 104 29.89 0.0
24 14:35 S 14 G 20 10.00 Fair CLR 97.9 70 40% 105 29.9 0.0
24 14:15 S 14 10.00 Fair CLR 96.6 71.1 44% 104 29.9 0.0
24 13:55 SW 15 10.00 Fair CLR 97.7 70.7 42% 105 29.9 0.0
24 13:35 S 14 G 20 10.00 Fair CLR 97.2 71.2 43% 105 29.91 0.0
24 13:15 S 13 G 17 10.00 Fair CLR 96.8 71.4 44% 105 29.91 0.0
24 12:55 S 13 G 17 10.00 Fair CLR 95.4 71.6 96.3 76.6 46% 103 29.92 0.0
24 12:35 SW 12 10.00 Fair CLR 95.9 71.4 45% 104 29.92 0.0
24 12:15 SW 14 G 21 10.00 Fair CLR 95 69.6 44% 101 29.92 0.0
24 11:55 SW 12 10.00 Fair CLR 94.3 70 45% 101 29.92 0.0
24 11:35 SW 15 10.00 Fair CLR 93.7 69.6 45% 100 29.92 0.0
24 11:15 SW 13 10.00 Fair CLR 93.4 70.5 47% 100 29.92 0.0
24 10:55 SW 10 10.00 Fair CLR 92.5 70.2 48% 99 29.92 0.0
24 10:35 SW 12 10.00 Fair CLR 91.4 70.9 51% 98 29.92 0.0
24 10:15 S 10 G 16 10.00 Fair CLR 90.5 71.2 53% 97 29.93 0.0
24 09:55 SW 12 10.00 Fair CLR 89.2 71.2 55% 96 29.92 0.0
24 09:35 SW 10 10.00 Fair CLR 87.8 72.1 60% 95 29.93 0.0
24 09:15 S 9 10.00 Fair CLR 86 72.7 65% 93 29.93 0.0
24 08:55 S 9 10.00 Fair CLR 84.9 72.7 67% 91 29.93 0.0
24 08:35 S 8 10.00 Fair CLR 83.7 73.4 71% 90 29.93 0.0
24 08:15 S 9 10.00 Fair CLR 81.9 72.9 74% 87 29.93 0.0
24 07:55 S 8 10.00 Fair CLR 80.2 72.9 78% 84 29.93 0.0
24 07:35 S 6 10.00 Fair CLR 78.8 72.7 82% 82 29.93 0.0
24 07:15 S 6 10.00 Fair CLR 77.4 72.5 85% 79 29.92 0.0
24 06:55 S 5 10.00 Fair CLR 76.5 72.1 76.5 72.7 87% 77 29.92 0.0
24 06:35 S 5 10.00 Fair CLR 75.6 72 89% 75 29.92 0.0
24 06:15 S 3 10.00 Fair CLR 75.2 71.6 89% 75 29.92 0.0
24 05:55 S 3 10.00 Fair CLR 74.8 71.2 89% 29.91 0.0
24 05:35 S 3 10.00 Fair CLR 74.7 70.7 88% 29.9 0.0
24 05:15 S 3 10.00 Fair CLR 74.7 70.5 87% 29.9 0.0
24 04:55 Calm 10.00 Fair CLR 74.7 70.2 86% 29.9 0.0
24 04:35 S 3 10.00 Fair CLR 73.4 69.6 88% 29.9 0.0
24 04:15 Calm 10.00 Fair CLR 73.4 69.8 89% 29.9 0.0
24 03:55 Calm 10.00 Fair CLR 73 69.4 89% 29.9 0.0
24 03:35 Calm 10.00 Fair CLR 73.4 69.6 88% 29.9 0.0
24 03:15 Calm 10.00 Fair CLR 73 69.3 88% 29.9 0.0
24 02:55 Calm 10.00 Fair CLR 73.4 69.1 86% 29.9 0.0
24 02:35 Calm 10.00 Fair CLR 74.7 68.4 81% 29.9 0.0
24 02:15 Calm 10.00 Fair CLR 74.7 68.4 81% 29.91 0.0
24 01:55 Calm 10.00 Fair CLR 75.2 67.8 78% 76 29.91 0.0
24 01:35 Calm 10.00 Fair CLR 75.6 68 77% 77 29.91 0.0
24 00:35 Calm 10.00 Fair CLR 77.4 66.9 70% 79 29.91 0.0
24 00:15 Calm 10.00 Fair CLR 77.5 67.1 70% 79 29.91 0.0
23 23:55 Calm 10.00 Fair CLR 76.3 68.2 76% 78 29.91 0.0
23 23:35 Calm 10.00 Fair CLR 77.2 67.8 73% 79 29.91 0.0
23 23:15 Calm 10.00 Fair CLR 77 68.4 75% 79 29.91 0.0
23 22:55 Calm 10.00 Fair CLR 77.4 68.2 73% 79 29.91 0.0
23 22:35 Calm 10.00 Fair CLR 77 70.5 80% 79 29.91 0.0
23 22:15 Calm 10.00 Fair CLR 78.1 69.8 76% 80 29.91 0.0
23 21:55 Calm 10.00 Fair CLR 78.1 70.2 77% 80 29.9 0.0
23 21:35 Calm 10.00 Fair CLR 78.4 70.5 77% 81 29.9 0.0
23 21:15 Calm 10.00 Fair CLR 79.7 70.3 73% 83 29.9 0.0
23 20:55 Calm 10.00 Fair CLR 80.8 71.2 73% 85 29.9 0.0
23 20:35 Calm 10.00 Fair CLR 82.9 70.9 67% 87 29.89 0.0
23 19:55 Calm 10.00 Fair CLR 90 64.4 43% 92 29.89 0.0
23 18:55 Calm 10.00 Fair CLR 92.7 63.3 92.8 87.3 38% 94 29.89 0.0
23 18:35 E 3 10.00 Fair CLR 92.5 61.2 35% 93 29.89 0.0
23 18:15 E 3 10.00 Fair CLR 92.5 62.1 36% 93 29.9 0.0
23 17:55 E 3 10.00 Fair CLR 90.9 63.5 40% 92 29.9 0.0
23 17:35 NE 5 10.00 Fair CLR 92.3 63.1 38% 93 29.9 0.0
23 17:15 NE 5 10.00 Fair CLR 92.7 63.3 38% 94 29.91 0.0
23 16:55 E 3 10.00 Fair CLR 92.3 61.7 36% 93 29.91 0.0
23 16:35 NE 6 10.00 Fair CLR 92.5 61.2 35% 93 29.91 0.0
23 16:15 NE 5 10.00 Fair CLR 91.8 60.4 35% 92 29.91 0.0
23 15:55 NE 6 10.00 Fair CLR 92.5 59.5 33% 92 29.91 0.0
23 15:35 NE 3 10.00 Fair CLR 91.9 60.3 35% 92 29.92 0.0
23 15:15 E 5 10.00 Fair CLR 91.6 62.1 37% 92 29.93 0.0
23 14:55 SE 3 10.00 Fair CLR 90.9 63.1 40% 92 29.93 0.0
23 14:35 E 6 10.00 Fair CLR 90.1 64.4 43% 92 29.93 0.0
23 14:15 SE 3 10.00 Fair CLR 89.4 65.7 45% 92 29.94 0.0
23 13:55 N 3 10.00 Fair CLR 89.4 67.1 48% 93 29.94 0.0
23 13:35 E 5 10.00 Fair CLR 88 66.9 50% 91 29.94 0.0
23 13:15 NE 3 10.00 Fair CLR 88.2 69.4 54% 93 29.95 0.0
23 12:55 E 8 10.00 Fair CLR 87.3 68.2 87.3 77.2 53% 91 29.95 0.0
23 12:35 E 6 10.00 Fair CLR 87.1 68.2 53% 91 29.95 0.0
23 11:55 NE 5 10.00 Fair CLR 85.5 67.5 55% 88 29.96 0.0
23 11:35 E 5 10.00 Fair CLR 84.4 67.5 57% 87 29.96 0.0
23 11:15 NE 3 10.00 Fair CLR 83.8 66.6 56% 86 29.96 0.0
23 10:55 NE 6 10.00 Fair CLR 83.8 66.6 56% 86 29.96 0.0
23 10:35 N 7 10.00 Fair CLR 82.6 66.9 59% 85 29.96 0.0
23 10:15 NE 6 10.00 Fair CLR 82 68.2 63% 85 29.96 0.0
23 09:55 NE 7 10.00 Fair CLR 81.5 67.5 63% 84 29.96 0.0
23 09:35 NE 8 10.00 Fair CLR 81.1 68 64% 84 29.95 0.0
23 09:15 NE 9 10.00 Fair CLR 80.6 68.4 66% 83 29.95 0.0
23 08:55 NE 6 10.00 Fair CLR 80.1 69.1 69% 83 29.95 0.0
23 08:35 NE 6 10.00 Fair CLR 79.7 68.7 69% 82 29.95 0.0
23 08:15 NE 7 10.00 Partly Cloudy SCT030 78.8 69.1 72% 81 29.94 0.0
23 07:55 NE 6 10.00 Mostly Cloudy BKN030 78.8 69.6 74% 81 29.94 0.0
23 07:35 NE 5 10.00 Partly Cloudy SCT028 78.8 71.4 78% 82 29.93 0.0
23 07:15 Calm 10.00 Mostly Cloudy BKN026 77.9 72.5 84% 80 29.93 0.0
23 06:55 NE 3 10.00 Mostly Cloudy BKN022 77 72.5 82.8 74.3 86% 78 29.93 0.0
23 06:35 Calm 10.00 Overcast OVC022 75.7 72.1 89% 76 29.92 0.0
23 06:15 Calm 10.00 Overcast OVC022 74.5 71.6 91% 29.92 0.0
23 05:55 Calm 10.00 Mostly Cloudy SCT022 BKN033 74.5 71.6 91% 29.92 0.0
23 05:35 Calm 10.00 Fair CLR 75 71.6 89% 74 29.92 0.0
23 05:15 N 3 10.00 Fair CLR 74.8 71.6 90% 29.91 0.0
23 04:55 Calm 10.00 Partly Cloudy SCT070 SCT075 75.2 71.6 89% 75 29.9 0.0
23 04:35 Calm 10.00 Partly Cloudy SCT070 75.6 71.1 86% 76 29.9 0.0
23 04:15 Calm 10.00 Mostly Cloudy BKN070 BKN085 76.3 71.2 84% 77 29.9 0.0
23 03:55 Calm 10.00 Partly Cloudy SCT070 SCT085 76.6 70.5 81% 78 29.9 0.0
23 03:35 Calm 10.00 Mostly Cloudy BKN080 77.7 70 77% 80 29.9 0.0
23 03:15 Calm 10.00 Fair CLR 78.3 70 76% 81 29.9 0.0
23 02:55 Calm 10.00 Fair CLR 79.5 70 73% 82 29.89 0.0
23 02:35 W 3 10.00 Fair CLR 80.2 69.8 71% 83 29.89 0.0
23 02:15 W 3 10.00 Fair CLR 81.1 69.8 69% 85 29.89 0.0
23 01:55 W 6 10.00 Fair CLR 81.7 69.8 67% 85 29.89 0.0
23 01:35 SW 9 10.00 Partly Cloudy SCT070 81.9 69.6 67% 85 29.88 0.0
23 01:15 SW 9 10.00 Mostly Cloudy BKN070 BKN090 82.4 69.6 65% 86 29.88 0.0
23 00:55 SW 10 G 17 10.00 Partly Cloudy SCT080 SCT090 82.4 69.4 90.7 82.4 65% 86 29.88 0.0
23 00:35 SW 9 10.00 Mostly Cloudy BKN080 BKN110 83.3 69.4 63% 87 29.89 0.0
23 00:15 SW 12 G 16 10.00 Overcast BKN080 OVC095 83.7 69.3 62% 87 29.88 0.0
22 23:55 SW 13 G 18 10.00 Mostly Cloudy BKN080 83.7 69.3 62% 87 29.88 0.0
22 23:35 SW 12 10.00 Mostly Cloudy BKN080 BKN110 84 69.1 61% 88 29.88 0.0
22 23:15 S 10 10.00 Partly Cloudy SCT090 84.2 69.1 61% 88 29.87 0.0
22 22:55 S 14 10.00 Partly Cloudy SCT090 84 69.1 61% 88 29.87 0.0
22 22:35 S 14 10.00 Fair CLR 84.2 69.3 61% 88 29.87 0.0
22 22:15 S 10 G 17 10.00 Fair CLR 84.2 69.1 61% 88 29.87 0.0
22 21:55 S 12 10.00 Fair CLR 84.6 69.1 60% 88 29.86 0.0
22 21:35 S 13 10.00 Fair CLR 84.9 68.7 58% 89 29.85 0.0
22 21:15 S 10 G 17 10.00 Fair CLR 86 68 55% 89 29.85 0.0
22 20:55 S 13 G 20 10.00 Fair CLR 86.7 68 54% 90 29.84 0.0
22 20:35 S 14 G 18 10.00 Fair CLR 87.1 68.4 54% 91 29.85 0.0
22 20:15 S 13 G 17 10.00 Fair CLR 88 68.5 53% 92 29.85 0.0
22 19:55 S 12 G 16 7.00 Fair CLR 88.9 69.1 52% 93 29.86 0.0
22 19:35 S 14 G 17 10.00 Fair CLR 90 69.1 50% 95 29.86 0.0
22 19:15 S 14 G 22 10.00 Fair CLR 90.1 68.9 50% 95 29.87 0.0
22 18:55 S 14 G 18 10.00 Fair CLR 90.3 68.5 94.3 90.3 49% 95 29.87 0.0
22 18:35 S 12 G 20 10.00 Fair CLR 90.5 68.2 48% 95 29.87 0.0
22 18:15 SW 16 G 25 10.00 Fair CLR 92.3 68 45% 97 29.87 0.0
22 17:55 S 15 G 23 10.00 Fair CLR 91.4 68 46% 96 29.87 0.0
22 17:35 S 16 G 22 10.00 Fair CLR 93.6 68.5 44% 98 29.88 0.0
22 17:15 SW 16 G 22 10.00 Fair CLR 93 68.2 44% 98 29.89 0.0
22 16:55 SW 12 G 24 10.00 Fair CLR 93.4 68.4 44% 98 29.89 0.0
22 16:35 S 15 G 24 10.00 Fair CLR 93.7 68.4 44% 99 29.89 0.0
22 16:15 S 17 G 22 10.00 Fair CLR 93.9 68.2 43% 99 29.9 0.0
22 15:55 S 20 G 25 10.00 Fair CLR 92.7 68.2 45% 97 29.9 0.0
22 15:35 S 15 G 26 10.00 Fair CLR 93.4 68.5 44% 98 29.91 0.0
22 15:15 S 17 G 23 10.00 Fair CLR 93.4 68.9 45% 99 29.92 0.0
22 14:55 SW 18 G 23 10.00 Fair CLR 94.3 66.9 41% 98 29.92 0.0
22 14:35 S 14 G 20 10.00 Fair CLR 93.4 66.9 42% 97 29.93 0.0
22 14:15 S 20 G 26 10.00 Fair CLR 93.6 66.2 41% 97 29.94 0.0
22 13:55 SW 22 G 26 10.00 Fair and Breezy CLR 92.5 66.4 42% 96 29.94 0.0
22 13:35 SW 22 G 26 10.00 Fair and Breezy CLR 92.1 66.7 43% 95 29.95 0.0
22 13:15 SW 20 G 25 10.00 Fair CLR 92.1 66.7 43% 95 29.95 0.0
22 12:55 SW 23 G 29 10.00 Fair and Breezy CLR 91.8 66.2 91.8 73.8 43% 95 29.96 0.0
22 12:35 SW 18 G 25 10.00 Fair CLR 89.4 66.2 46% 92 29.97 0.0
22 12:15 SW 16 G 25 10.00 Fair CLR 89.6 67.5 48% 93 29.97 0.0
22 11:55 SW 17 G 28 10.00 Fair CLR 90 66.6 46% 93 29.98 0.0
22 11:35 SW 18 G 24 10.00 Fair CLR 88.7 66.7 48% 92 29.99 0.0
22 11:15 SW 16 G 25 10.00 Fair CLR 87.4 67.3 51% 91 29.99 0.0
22 10:55 SW 18 10.00 Fair CLR 86.5 67.5 53% 90 29.99 0.0
22 10:35 SW 18 G 24 10.00 Fair CLR 85.6 67.1 54% 88 30 0.0
22 10:15 SW 20 G 26 10.00 Fair CLR 83.1 66.6 57% 86 30 0.0
22 09:55 SW 21 G 26 10.00 Fair and Breezy CLR 83.5 66.6 57% 86 30 0.0
22 09:35 SW 18 G 25 10.00 Fair CLR 82.4 66.6 59% 85 30 0.0
22 09:15 S 13 G 20 10.00 Fair CLR 81 66.4 61% 83 30 0.0
22 08:55 SW 15 G 26 10.00 Fair CLR 80.4 65.7 61% 82 30.01 0.0
22 08:35 SW 14 G 17 10.00 Fair CLR 79.2 65.8 64% 81 30.02 0.0
22 08:15 S 15 G 20 10.00 Fair CLR 77.5 65.3 66% 79 30.01 0.0
22 07:55 S 10 10.00 Fair CLR 77.4 66 68% 79 30.02 0.0
22 07:35 S 9 10.00 Fair CLR 75.2 66 73% 77 30.02 0.0
22 07:15 S 10 10.00 Fair CLR 74.3 66 75% 30.02 0.0
22 06:55 S 7 10.00 Fair CLR 73.6 66.2 74.1 72.5 78% 30.02 0.0
22 06:35 S 8 10.00 Fair CLR 73.4 66.2 78% 30.02 0.0
22 06:15 S 7 10.00 Fair CLR 72.9 66.2 80% 30.03 0.0
22 05:55 S 8 10.00 Fair CLR 72.9 66.2 80% 30.03 0.0
22 05:35 S 6 10.00 Fair CLR 72.9 66.2 80% 30.03 0.0
22 05:15 S 7 10.00 Fair CLR 73 66.2 79% 30.03 0.0
22 04:55 S 6 10.00 Fair CLR 73.4 66 78% 30.04 0.0
22 04:35 S 6 10.00 Fair CLR 73.2 65.7 77% 30.04 0.0
22 04:15 S 7 10.00 Fair CLR 73 65.5 77% 30.05 0.0
22 03:55 S 6 10.00 Fair CLR 72.5 65.3 78% 30.04 0.0
Date Time (cdt) Wind (mph) Vis. (mi.) Weather Sky Cond. Air Dwpt Max. Min. Relative Humidity Wind Chill (°F) Heat Index (°F) altimeter (in) sea level (mb) 1 hr 3 hr 6 hr
6 hour
Temperature (ºF) Pressure Precipitation (in)